| time (UTC) | temp F | wind direction | speed MPH | gust MPH | rain 1hr in | rain 24hr in | rain mn in | humidity % | barometer mb |
| 20260506234919 | 58 | 18 | 2.0 | 7.0 | 0.00 | 0.00 | 0.00 | 68 | 1014.7 |
| 20260506234418 | 58 | 340 | 2.0 | 7.0 | 0.00 | 0.00 | 0.00 | 66 | 1014.9 |
| 20260506233919 | 59 | 360 | 3.0 | 7.0 | 0.00 | 0.00 | 0.00 | 67 | 1014.7 |
| 20260506233418 | 59 | 337 | 4.0 | 10.0 | 0.00 | 0.00 | 0.00 | 66 | 1014.7 |
| 20260506232919 | 59 | 30 | 4.0 | 10.0 | 0.00 | 0.00 | 0.00 | 65 | 1014.7 |
| 20260506232419 | 59 | 325 | 5.0 | 7.0 | 0.00 | 0.00 | 0.00 | 65 | 1014.6 |
| 20260506231918 | 60 | 336 | 3.0 | 5.0 | 0.00 | 0.00 | 0.00 | 65 | 1014.6 |
| 20260506231420 | 60 | 14 | 2.0 | 5.0 | 0.00 | 0.00 | 0.00 | 67 | 1014.4 |
| 20260506230918 | 60 | 360 | 3.0 | 3.0 | 0.00 | 0.00 | 0.00 | 68 | 1014.3 |
| 20260506230418 | 60 | 0 | 0.0 | 3.0 | 0.00 | 0.00 | 0.00 | 68 | 1014.3 |
| 20260506225918 | 60 | 105 | 1.0 | 3.0 | 0.00 | 0.00 | 0.00 | 67 | 1014.3 |
| 20260506225418 | 60 | 360 | 1.0 | 4.0 | 0.00 | 0.00 | 0.00 | 68 | 1014.3 |
| 20260506224917 | 60 | 0 | 0.0 | 5.0 | 0.00 | 0.00 | 0.00 | 69 | 1014.3 |
| 20260506224418 | 60 | 107 | 4.0 | 5.0 | 0.00 | 0.00 | 0.00 | 67 | 1014.1 |
| 20260506223917 | 60 | 86 | 1.0 | 4.0 | 0.00 | 0.00 | 0.00 | 69 | 1014.1 |
| 20260506223417 | 60 | 86 | 2.0 | 4.0 | 0.00 | 0.00 | 0.00 | 67 | 1014.1 |
| 20260506222917 | 60 | 0 | 0.0 | 4.0 | 0.00 | 0.00 | 0.00 | 67 | 1013.8 |
| 20260506222417 | 60 | 360 | 2.0 | 3.0 | 0.00 | 0.00 | 0.00 | 68 | 1013.9 |
| 20260506221918 | 60 | 360 | 1.0 | 5.0 | 0.00 | 0.00 | 0.00 | 68 | 1013.9 |
| 20260506221520 | 60 | 114 | 2.0 | 5.0 | 0.00 | 0.00 | 0.00 | 66 | 1013.7 |
| 20260506221017 | 60 | 79 | 2.0 | 5.0 | 0.00 | 0.00 | 0.00 | 67 | 1013.6 |
| 20260506220516 | 60 | 360 | 3.0 | 11.0 | 0.00 | 0.00 | 0.00 | 66 | 1013.6 |
| 20260506220115 | 60 | 86 | 2.0 | 11.0 | 0.00 | 0.00 | 0.00 | 66 | 1013.5 |
| 20260506215618 | 61 | 92 | 3.0 | 11.0 | 0.00 | 0.00 | 0.00 | 65 | 1013.1 |
| 20260506215140 | 61 | 60 | 5.0 | 12.0 | 0.00 | 0.00 | 0.00 | 66 | 1012.9 |
| 20260506214637 | 61 | 80 | 2.0 | 12.0 | 0.00 | 0.00 | 0.00 | 64 | 1012.9 |
| 20260506214142 | 61 | 42 | 6.0 | 12.0 | 0.00 | 0.00 | 0.00 | 65 | 1012.8 |
| 20260506213641 | 61 | 28 | 6.0 | 12.0 | 0.00 | 0.00 | 0.00 | 65 | 1012.8 |
| 20260506213139 | 61 | 34 | 4.0 | 11.0 | 0.00 | 0.00 | 0.00 | 66 | 1012.9 |
| 20260506212643 | 61 | 5 | 5.0 | 11.0 | 0.00 | 0.00 | 0.00 | 66 | 1012.9 |
| 20260506212139 | 61 | 11 | 7.0 | 12.0 | 0.00 | 0.00 | 0.00 | 64 | 1012.7 |
| 20260506211641 | 61 | 27 | 4.0 | 14.0 | 0.00 | 0.00 | 0.00 | 64 | 1012.7 |
| 20260506211140 | 61 | 49 | 6.0 | 14.0 | 0.00 | 0.00 | 0.00 | 64 | 1012.7 |
| 20260506210639 | 61 | 67 | 6.0 | 11.0 | 0.00 | 0.00 | 0.00 | 66 | 1012.7 |
| 20260506210142 | 61 | 61 | 4.0 | 11.0 | 0.00 | 0.00 | 0.00 | 66 | 1012.8 |
| 20260506205642 | 61 | 60 | 4.0 | 8.0 | 0.00 | 0.00 | 0.00 | 64 | 1012.8 |
| 20260506205140 | 62 | 57 | 4.0 | 6.0 | 0.00 | 0.00 | 0.00 | 64 | 1013.0 |
| 20260506204645 | 62 | 138 | 2.0 | 7.0 | 0.00 | 0.00 | 0.00 | 64 | 1012.9 |
| 20260506204138 | 62 | 67 | 6.0 | 7.0 | 0.00 | 0.00 | 0.00 | 65 | 1013.1 |
| 20260506203644 | 62 | 0 | 0.0 | 5.0 | 0.00 | 0.00 | 0.00 | 63 | 1013.2 |
| 20260506203138 | 61 | 121 | 3.0 | 6.0 | 0.00 | 0.00 | 0.00 | 66 | 1013.4 |
| 20260506202637 | 61 | 75 | 4.0 | 6.0 | 0.00 | 0.00 | 0.00 | 65 | 1013.6 |
| 20260506202140 | 61 | 153 | 2.0 | 5.0 | 0.00 | 0.00 | 0.00 | 64 | 1013.9 |
| 20260506201643 | 61 | 107 | 2.0 | 5.0 | 0.00 | 0.00 | 0.00 | 64 | 1014.0 |
| 20260506201140 | 61 | 196 | 4.0 | 7.0 | 0.00 | 0.00 | 0.00 | 63 | 1014.1 |
| 20260506200638 | 61 | 185 | 2.0 | 7.0 | 0.00 | 0.00 | 0.00 | 64 | 1014.2 |
| 20260506200143 | 61 | 163 | 6.0 | 8.0 | 0.00 | 0.00 | 0.00 | 64 | 1014.3 |
| 20260506195637 | 61 | 200 | 2.0 | 8.0 | 0.00 | 0.00 | 0.00 | 64 | 1014.5 |
| 20260506195141 | 61 | 131 | 5.0 | 9.0 | 0.00 | 0.00 | 0.00 | 63 | 1014.5 |
| 20260506194641 | 61 | 115 | 4.0 | 9.0 | 0.00 | 0.00 | 0.00 | 62 | 1014.5 |
| 20260506194137 | 61 | 133 | 1.0 | 6.0 | 0.00 | 0.00 | 0.00 | 61 | 1014.4 |
| 20260506193640 | 61 | 0 | 0.0 | 9.0 | 0.00 | 0.00 | 0.00 | 61 | 1014.6 |
| 20260506193139 | 62 | 46 | 2.0 | 9.0 | 0.00 | 0.00 | 0.00 | 61 | 1014.5 |
| 20260506192637 | 62 | 180 | 5.0 | 7.0 | 0.00 | 0.00 | 0.00 | 63 | 1014.6 |
| 20260506192142 | 61 | 126 | 7.0 | 8.0 | 0.00 | 0.00 | 0.00 | 63 | 1014.6 |
| 20260506191616 | 61 | 286 | 4.0 | 8.0 | 0.00 | 0.00 | 0.00 | 61 | 1014.9 |
| 20260506191141 | 61 | 340 | 2.0 | 6.0 | 0.00 | 0.00 | 0.00 | 62 | 1015.0 |
| 20260506190647 | 60 | 128 | 3.0 | 6.0 | 0.00 | 0.00 | 0.00 | 63 | 1015.1 |
| 20260506190142 | 60 | 319 | 2.0 | 8.0 | 0.00 | 0.00 | 0.00 | 64 | 1015.1 |
| 20260506185638 | 60 | 352 | 1.0 | 10.0 | 0.00 | 0.00 | 0.00 | 62 | 1015.2 |
| 20260506185136 | 60 | 128 | 3.0 | 10.0 | 0.00 | 0.00 | 0.00 | 63 | 1015.2 |
| 20260506184643 | 60 | 111 | 9.0 | 8.0 | 0.00 | 0.00 | 0.00 | 65 | 1015.4 |
| 20260506184141 | 59 | 76 | 2.0 | 11.0 | 0.00 | 0.00 | 0.00 | 66 | 1015.4 |
| 20260506183639 | 59 | 31 | 5.0 | 11.0 | 0.00 | 0.00 | 0.00 | 65 | 1015.4 |
| 20260506183144 | 58 | 57 | 6.0 | 12.0 | 0.00 | 0.00 | 0.00 | 67 | 1015.2 |
| 20260506182640 | 58 | 92 | 3.0 | 12.0 | 0.00 | 0.00 | 0.00 | 66 | 1015.3 |
| 20260506182138 | 58 | 86 | 10.0 | 11.0 | 0.00 | 0.00 | 0.00 | 67 | 1015.3 |
| 20260506181637 | 58 | 57 | 5.0 | 10.0 | 0.00 | 0.00 | 0.00 | 67 | 1015.5 |
| 20260506181141 | 57 | 92 | 6.0 | 9.0 | 0.00 | 0.00 | 0.00 | 69 | 1015.4 |
| 20260506180639 | 57 | 52 | 5.0 | 10.0 | 0.00 | 0.00 | 0.00 | 69 | 1015.6 |
| 20260506180143 | 56 | 10 | 4.0 | 10.0 | 0.00 | 0.00 | 0.00 | 68 | 1015.5 |
| 20260506175643 | 56 | 17 | 4.0 | 10.0 | 0.00 | 0.00 | 0.00 | 68 | 1015.3 |
| 20260506175143 | 56 | 19 | 5.0 | 10.0 | 0.00 | 0.00 | 0.00 | 69 | 1015.3 |
| 20260506174642 | 56 | 352 | 3.0 | 8.0 | 0.00 | 0.00 | 0.00 | 70 | 1015.4 |
| 20260506174136 | 56 | 22 | 5.0 | 9.0 | 0.00 | 0.00 | 0.00 | 72 | 1015.4 |
| 20260506173642 | 55 | 30 | 5.0 | 11.0 | 0.00 | 0.00 | 0.00 | 73 | 1015.0 |
| 20260506173142 | 55 | 50 | 4.0 | 11.0 | 0.00 | 0.00 | 0.00 | 73 | 1014.8 |
| 20260506172623 | 54 | 360 | 4.0 | 9.0 | 0.00 | 0.00 | 0.00 | 72 | 1015.1 |
| 20260506172124 | 54 | 360 | 6.0 | 8.0 | 0.00 | 0.00 | 0.00 | 75 | 1015.5 |
| 20260506171622 | 54 | 360 | 3.0 | 8.0 | 0.00 | 0.00 | 0.00 | 74 | 1015.5 |
| 20260506171121 | 53 | 71 | 6.0 | 8.0 | 0.00 | 0.00 | 0.00 | 73 | 1015.8 |
| 20260506170621 | 53 | 360 | 3.0 | 8.0 | 0.00 | 0.00 | 0.00 | 73 | 1016.2 |
| 20260506170121 | 53 | 360 | 1.0 | 6.0 | 0.00 | 0.00 | 0.00 | 74 | 1016.3 |
| 20260506165620 | 53 | 49 | 2.0 | 6.0 | 0.00 | 0.00 | 0.00 | 72 | 1016.5 |
| 20260506165123 | 53 | 59 | 2.0 | 4.0 | 0.00 | 0.00 | 0.00 | 72 | 1016.8 |
| 20260506164624 | 53 | 86 | 2.0 | 4.0 | 0.00 | 0.00 | 0.00 | 74 | 1016.5 |
| 20260506164124 | 53 | 109 | 2.0 | 6.0 | 0.00 | 0.00 | 0.00 | 73 | 1016.6 |
| 20260506163620 | 53 | 74 | 3.0 | 7.0 | 0.00 | 0.00 | 0.00 | 73 | 1016.7 |
| 20260506163121 | 53 | 360 | 5.0 | 8.0 | 0.00 | 0.00 | 0.00 | 73 | 1016.4 |
| 20260506162620 | 53 | 93 | 6.0 | 8.0 | 0.00 | 0.00 | 0.00 | 73 | 1016.4 |
| 20260506162121 | 53 | 81 | 2.0 | 9.0 | 0.00 | 0.00 | 0.00 | 73 | 1015.8 |
| 20260506161620 | 52 | 71 | 3.0 | 9.0 | 0.00 | 0.00 | 0.00 | 73 | 1015.7 |
| 20260506161120 | 52 | 60 | 6.0 | 9.0 | 0.00 | 0.00 | 0.00 | 73 | 1015.7 |
| 20260506160621 | 52 | 59 | 5.0 | 9.0 | 0.00 | 0.00 | 0.00 | 73 | 1015.9 |
| 20260506160121 | 52 | 94 | 2.0 | 10.0 | 0.00 | 0.00 | 0.00 | 74 | 1015.7 |
| 20260506155618 | 52 | 60 | 9.0 | 12.0 | 0.00 | 0.00 | 0.00 | 73 | 1015.5 |
| 20260506155121 | 52 | 86 | 5.0 | 12.0 | 0.00 | 0.00 | 0.00 | 74 | 1015.6 |
| 20260506154621 | 52 | 55 | 7.0 | 12.0 | 0.00 | 0.00 | 0.00 | 72 | 1015.4 |
| 20260506154122 | 52 | 56 | 7.0 | 12.0 | 0.00 | 0.00 | 0.00 | 72 | 1015.1 |
| 20260506153618 | 52 | 63 | 4.0 | 13.0 | 0.00 | 0.00 | 0.00 | 74 | 1015.3 |
| 20260506153118 | 52 | 68 | 8.0 | 13.0 | 0.00 | 0.00 | 0.00 | 72 | 1015.4 |
| 20260506152619 | 52 | 87 | 5.0 | 12.0 | 0.00 | 0.00 | 0.00 | 72 | 1015.3 |
| 20260506152121 | 52 | 67 | 5.0 | 12.0 | 0.00 | 0.00 | 0.00 | 73 | 1015.3 |
| 20260506151621 | 52 | 63 | 5.0 | 14.0 | 0.00 | 0.00 | 0.00 | 72 | 1015.3 |
| 20260506151119 | 52 | 52 | 10.0 | 14.0 | 0.00 | 0.00 | 0.00 | 71 | 1015.3 |
| 20260506150619 | 52 | 360 | 6.0 | 13.0 | 0.00 | 0.00 | 0.00 | 72 | 1015.3 |
| 20260506150119 | 52 | 360 | 8.0 | 11.0 | 0.00 | 0.00 | 0.00 | 73 | 1015.1 |
| 20260506145617 | 52 | 360 | 1.0 | 11.0 | 0.00 | 0.00 | 0.00 | 73 | 1015.0 |
| 20260506145118 | 52 | 360 | 11.0 | 14.0 | 0.00 | 0.00 | 0.00 | 73 | 1014.9 |
| 20260506144617 | 51 | 360 | 8.0 | 15.0 | 0.00 | 0.00 | 0.00 | 73 | 1014.7 |
| 20260506144116 | 51 | 62 | 14.0 | 15.0 | 0.00 | 0.00 | 0.00 | 72 | 1014.9 |
| 20260506143617 | 51 | 79 | 9.0 | 13.0 | 0.00 | 0.00 | 0.00 | 73 | 1015.1 |
| 20260506143116 | 51 | 74 | 4.0 | 13.0 | 0.00 | 0.00 | 0.00 | 72 | 1014.9 |
| 20260506142617 | 51 | 53 | 11.0 | 14.0 | 0.00 | 0.00 | 0.00 | 72 | 1015.1 |
| 20260506142116 | 51 | 49 | 9.0 | 14.0 | 0.00 | 0.00 | 0.00 | 72 | 1015.1 |
| 20260506141616 | 51 | 74 | 9.0 | 11.0 | 0.00 | 0.00 | 0.00 | 72 | 1015.1 |
| 20260506141116 | 52 | 57 | 10.0 | 16.0 | 0.00 | 0.00 | 0.00 | 71 | 1015.0 |
| 20260506140641 | 52 | 68 | 8.0 | 16.0 | 0.00 | 0.00 | 0.00 | 71 | 1014.6 |
| 20260506140139 | 52 | 49 | 10.0 | 13.0 | 0.00 | 0.00 | 0.00 | 70 | 1014.9 |
| 20260506135643 | 52 | 42 | 9.0 | 9.0 | 0.00 | 0.00 | 0.00 | 72 | 1014.8 |
| 20260506135143 | 52 | 44 | 5.0 | 10.0 | 0.00 | 0.00 | 0.00 | 72 | 1014.7 |
| 20260506134642 | 51 | 68 | 3.0 | 10.0 | 0.00 | 0.00 | 0.00 | 72 | 1014.4 |
| 20260506134140 | 51 | 57 | 6.0 | 10.0 | 0.00 | 0.00 | 0.00 | 74 | 1014.2 |
| 20260506133635 | 51 | 83 | 5.0 | 10.0 | 0.00 | 0.00 | 0.00 | 74 | 1014.3 |
| 20260506133142 | 51 | 53 | 5.0 | 9.0 | 0.00 | 0.00 | 0.00 | 73 | 1014.6 |
| 20260506132641 | 51 | 52 | 5.0 | 10.0 | 0.00 | 0.00 | 0.00 | 74 | 1014.7 |
| 20260506132137 | 51 | 45 | 5.0 | 10.0 | 0.00 | 0.00 | 0.00 | 75 | 1014.4 |
| 20260506131643 | 51 | 48 | 4.0 | 10.0 | 0.00 | 0.00 | 0.00 | 75 | 1014.2 |
| 20260506131138 | 51 | 58 | 6.0 | 11.0 | 0.00 | 0.00 | 0.00 | 75 | 1014.5 |
| 20260506130637 | 51 | 75 | 5.0 | 11.0 | 0.00 | 0.00 | 0.00 | 74 | 1014.7 |
| 20260506130143 | 51 | 64 | 3.0 | 10.0 | 0.00 | 0.00 | 0.00 | 75 | 1014.8 |
| 20260506125644 | 51 | 55 | 9.0 | 10.0 | 0.00 | 0.00 | 0.00 | 75 | 1014.7 |
| 20260506125138 | 51 | 46 | 7.0 | 12.0 | 0.00 | 0.00 | 0.00 | 74 | 1014.8 |
| 20260506124637 | 51 | 76 | 7.0 | 12.0 | 0.00 | 0.00 | 0.00 | 74 | 1014.3 |
| 20260506124138 | 51 | 66 | 5.0 | 12.0 | 0.00 | 0.00 | 0.00 | 74 | 1014.4 |
| 20260506123645 | 51 | 71 | 6.0 | 13.0 | 0.00 | 0.00 | 0.00 | 74 | 1014.2 |
| 20260506123143 | 51 | 61 | 5.0 | 13.0 | 0.00 | 0.00 | 0.00 | 75 | 1014.1 |
| 20260506122639 | 51 | 68 | 10.0 | 11.0 | 0.00 | 0.00 | 0.00 | 77 | 1013.6 |
| 20260506122141 | 51 | 58 | 6.0 | 9.0 | 0.00 | 0.00 | 0.00 | 79 | 1013.7 |
| 20260506121636 | 51 | 80 | 3.0 | 6.0 | 0.00 | 0.00 | 0.00 | 81 | 1013.7 |
| 20260506121136 | 51 | 92 | 3.0 | 6.0 | 0.00 | 0.00 | 0.00 | 81 | 1013.7 |
| 20260506120641 | 51 | 82 | 4.0 | 6.0 | 0.00 | 0.00 | 0.00 | 82 | 1013.6 |
| 20260506120138 | 51 | 113 | 4.0 | 6.0 | 0.00 | 0.00 | 0.00 | 83 | 1013.2 |
| 20260506115639 | 51 | 86 | 1.0 | 3.0 | 0.00 | 0.00 | 0.00 | 84 | 1013.3 |
| 20260506115139 | 51 | 90 | 2.0 | 3.0 | 0.00 | 0.00 | 0.00 | 84 | 1013.2 |
| 20260506114636 | 51 | 0 | 0.0 | 2.0 | 0.00 | 0.00 | 0.00 | 84 | 1013.4 |
| 20260506114142 | 51 | 55 | 1.0 | 2.0 | 0.00 | 0.00 | 0.00 | 83 | 1013.4 |
| 20260506113642 | 51 | 0 | 0.0 | 3.0 | 0.00 | 0.00 | 0.00 | 83 | 1013.2 |
| 20260506113138 | 51 | 26 | 1.0 | 3.0 | 0.00 | 0.00 | 0.00 | 83 | 1012.8 |
| 20260506112638 | 51 | 40 | 2.0 | 3.0 | 0.00 | 0.00 | 0.00 | 83 | 1012.4 |
| 20260506112142 | 51 | 19 | 2.0 | 3.0 | 0.00 | 0.00 | 0.00 | 83 | 1012.5 |
| 20260506111637 | 51 | 0 | 0.0 | 4.0 | 0.00 | 0.00 | 0.00 | 83 | 1012.5 |
| 20260506111139 | 51 | 57 | 2.0 | 4.0 | 0.00 | 0.00 | 0.00 | 83 | 1012.2 |
| 20260506110637 | 50 | 60 | 4.0 | 5.0 | 0.00 | 0.00 | 0.00 | 83 | 1012.2 |
| 20260506110141 | 50 | 60 | 3.0 | 6.0 | 0.00 | 0.00 | 0.00 | 83 | 1011.8 |
| 20260506105644 | 50 | 55 | 4.0 | 7.0 | 0.00 | 0.00 | 0.00 | 83 | 1011.7 |
| 20260506105142 | 50 | 32 | 4.0 | 7.0 | 0.00 | 0.00 | 0.00 | 83 | 1011.6 |
| 20260506104641 | 50 | 36 | 4.0 | 6.0 | 0.00 | 0.00 | 0.00 | 84 | 1011.6 |
| 20260506104137 | 50 | 46 | 5.0 | 10.0 | 0.00 | 0.00 | 0.00 | 84 | 1011.4 |
| 20260506103639 | 50 | 30 | 2.0 | 12.0 | 0.00 | 0.00 | 0.00 | 84 | 1011.3 |
| 20260506103142 | 50 | 29 | 4.0 | 12.0 | 0.00 | 0.00 | 0.00 | 85 | 1011.2 |
| 20260506102638 | 50 | 51 | 5.0 | 12.0 | 0.00 | 0.00 | 0.00 | 84 | 1011.0 |
| 20260506102142 | 51 | 38 | 5.0 | 8.0 | 0.00 | 0.00 | 0.00 | 84 | 1011.3 |
| 20260506101637 | 51 | 60 | 4.0 | 8.0 | 0.00 | 0.00 | 0.00 | 84 | 1011.3 |
| 20260506101140 | 51 | 59 | 1.0 | 5.0 | 0.00 | 0.00 | 0.00 | 84 | 1011.3 |
| 20260506100639 | 51 | 40 | 5.0 | 7.0 | 0.00 | 0.00 | 0.00 | 84 | 1011.1 |
| 20260506100142 | 51 | 40 | 2.0 | 7.0 | 0.00 | 0.00 | 0.00 | 84 | 1011.2 |
| 20260506095629 | 51 | 44 | 5.0 | 7.0 | 0.00 | 0.00 | 0.00 | 84 | 1010.8 |
| 20260506095132 | 51 | 28 | 4.0 | 8.0 | 0.00 | 0.00 | 0.00 | 84 | 1011.0 |
| 20260506094631 | 51 | 58 | 3.0 | 8.0 | 0.00 | 0.00 | 0.00 | 84 | 1010.9 |
| 20260506094129 | 51 | 22 | 3.0 | 5.0 | 0.00 | 0.00 | 0.00 | 85 | 1010.9 |
| 20260506093628 | 51 | 57 | 2.0 | 9.0 | 0.00 | 0.00 | 0.00 | 86 | 1011.0 |
| 20260506093129 | 51 | 27 | 3.0 | 9.0 | 0.00 | 0.00 | 0.00 | 86 | 1010.5 |
| 20260506092628 | 51 | 28 | 4.0 | 9.0 | 0.00 | 0.00 | 0.00 | 86 | 1010.3 |
| 20260506092128 | 51 | 23 | 3.0 | 7.0 | 0.00 | 0.00 | 0.00 | 87 | 1010.1 |
| 20260506091628 | 51 | 46 | 3.0 | 7.0 | 0.00 | 0.00 | 0.00 | 86 | 1009.8 |
| 20260506091129 | 51 | 36 | 3.0 | 7.0 | 0.00 | 0.00 | 0.00 | 87 | 1010.0 |
| 20260506090630 | 51 | 13 | 3.0 | 4.0 | 0.00 | 0.00 | 0.00 | 87 | 1010.2 |
| 20260506090126 | 51 | 19 | 1.0 | 5.0 | 0.00 | 0.00 | 0.00 | 87 | 1010.2 |
| 20260506085628 | 51 | 22 | 2.0 | 5.0 | 0.00 | 0.00 | 0.00 | 87 | 1010.1 |
| 20260506085129 | 51 | 29 | 2.0 | 5.0 | 0.00 | 0.00 | 0.00 | 86 | 1010.0 |
| 20260506084627 | 51 | 17 | 4.0 | 7.0 | 0.00 | 0.00 | 0.00 | 86 | 1010.1 |
| 20260506084125 | 51 | 32 | 3.0 | 8.0 | 0.00 | 0.00 | 0.00 | 86 | 1010.1 |
| 20260506083627 | 51 | 36 | 5.0 | 8.0 | 0.00 | 0.00 | 0.00 | 86 | 1009.9 |
| 20260506083125 | 51 | 34 | 3.0 | 10.0 | 0.00 | 0.00 | 0.00 | 87 | 1009.7 |
| 20260506082624 | 51 | 41 | 2.0 | 10.0 | 0.00 | 0.00 | 0.00 | 87 | 1010.0 |
| 20260506082126 | 51 | 11 | 7.0 | 10.0 | 0.00 | 0.00 | 0.00 | 87 | 1009.7 |
| 20260506081625 | 51 | 65 | 6.0 | 10.0 | 0.00 | 0.00 | 0.00 | 87 | 1009.8 |
| 20260506081125 | 51 | 50 | 4.0 | 5.0 | 0.00 | 0.00 | 0.00 | 87 | 1009.6 |
| 20260506080627 | 51 | 0 | 0.0 | 3.0 | 0.00 | 0.00 | 0.00 | 87 | 1009.6 |
| 20260506080124 | 51 | 15 | 3.0 | 4.0 | 0.00 | 0.00 | 0.00 | 87 | 1009.8 |
| 20260506073126 | 52 | 43 | 7.0 | 10.0 | 0.00 | 0.00 | 0.00 | 86 | 1009.5 |
| 20260506072624 | 52 | 352 | 3.0 | 5.0 | 0.00 | 0.00 | 0.00 | 87 | 1009.8 |
| 20260506072121 | 52 | 5 | 1.0 | 6.0 | 0.00 | 0.00 | 0.00 | 87 | 1010.0 |
| 20260506071623 | 52 | 327 | 3.0 | 8.0 | 0.00 | 0.00 | 0.00 | 87 | 1009.7 |
| 20260506071121 | 52 | 17 | 2.0 | 8.0 | 0.00 | 0.00 | 0.00 | 87 | 1009.5 |
| 20260506070622 | 52 | 17 | 4.0 | 7.0 | 0.00 | 0.00 | 0.00 | 88 | 1009.4 |
| 20260506070123 | 52 | 13 | 2.0 | 7.0 | 0.00 | 0.00 | 0.00 | 88 | 1009.3 |
| 20260506062121 | 52 | 20 | 2.0 | 8.0 | 0.00 | 0.00 | 0.00 | 91 | 1009.4 |
| 20260506061621 | 52 | 33 | 1.0 | 7.0 | 0.00 | 0.00 | 0.00 | 91 | 1009.5 |
| 20260506061119 | 51 | 38 | 3.0 | 8.0 | 0.00 | 0.00 | 0.00 | 92 | 1009.3 |
| 20260506060620 | 51 | 12 | 4.0 | 8.0 | 0.00 | 0.00 | 0.00 | 92 | 1009.2 |
| 20260506060121 | 51 | 19 | 2.0 | 8.0 | 0.00 | 0.00 | 0.00 | 92 | 1009.3 |
| 20260506051120 | 51 | 25 | 8.0 | 8.0 | 0.00 | 0.00 | 0.00 | 91 | 1009.2 |
| 20260506050619 | 52 | 35 | 4.0 | 10.0 | 0.00 | 0.00 | 0.00 | 91 | 1009.2 |
| 20260506050121 | 52 | 360 | 3.0 | 10.0 | 0.00 | 0.00 | 0.00 | 91 | 1009.2 |
| 20260506045120 | 52 | 30 | 9.0 | 11.0 | 0.00 | 0.00 | 0.05 | 90 | 1009.1 |
| 20260506044618 | 53 | 19 | 8.0 | 9.0 | 0.00 | 0.00 | 0.05 | 89 | 1009.0 |
| 20260506044118 | 53 | 360 | 5.0 | 9.0 | 0.00 | 0.00 | 0.05 | 89 | 1008.9 |
| 20260506043618 | 53 | 39 | 4.0 | 10.0 | 0.00 | 0.00 | 0.05 | 88 | 1008.9 |
| 20260506043117 | 54 | 5 | 4.0 | 10.0 | 0.00 | 0.00 | 0.05 | 88 | 1008.8 |
| 20260506042618 | 54 | 352 | 4.0 | 10.0 | 0.00 | 0.00 | 0.05 | 87 | 1008.5 |
| 20260506042117 | 54 | 28 | 5.0 | 9.0 | 0.00 | 0.00 | 0.05 | 86 | 1008.6 |
| 20260506041616 | 54 | 43 | 7.0 | 12.0 | 0.00 | 0.00 | 0.05 | 85 | 1008.5 |
| 20260506041117 | 55 | 348 | 3.0 | 12.0 | 0.00 | 0.00 | 0.05 | 85 | 1008.7 |
| 20260506040616 | 55 | 346 | 12.0 | 12.0 | 0.00 | 0.00 | 0.05 | 85 | 1008.5 |
| 20260506040116 | 55 | 343 | 4.0 | 12.0 | 0.00 | 0.00 | 0.05 | 85 | 1008.4 |
| 20260506035618 | 55 | 352 | 4.0 | 12.0 | 0.00 | 0.00 | 0.05 | 85 | 1008.3 |
| 20260506035117 | 56 | 335 | 3.0 | 10.0 | 0.00 | 0.00 | 0.05 | 85 | 1008.3 |
| 20260506034616 | 56 | 337 | 2.0 | 6.0 | 0.00 | 0.00 | 0.05 | 85 | 1008.2 |
| 20260506034115 | 56 | 317 | 5.0 | 6.0 | 0.00 | 0.00 | 0.05 | 86 | 1007.9 |
| 20260506033616 | 56 | 360 | 4.0 | 9.0 | 0.00 | 0.00 | 0.05 | 86 | 1007.7 |
| 20260506033136 | 56 | 340 | 5.0 | 9.0 | 0.00 | 0.00 | 0.05 | 85 | 1007.6 |
| 20260506032618 | 56 | 350 | 2.0 | 8.0 | 0.00 | 0.00 | 0.05 | 86 | 1007.5 |
| 20260506032115 | 56 | 322 | 4.0 | 8.0 | 0.00 | 0.00 | 0.05 | 86 | 1007.4 |
| 20260506031615 | 56 | 346 | 4.0 | 10.0 | 0.00 | 0.00 | 0.05 | 86 | 1007.4 |
| 20260506031115 | 57 | 338 | 3.0 | 10.0 | 0.00 | 0.00 | 0.05 | 86 | 1007.5 |
| 20260506030638 | 57 | 332 | 3.0 | 8.0 | 0.00 | 0.00 | 0.05 | 86 | 1007.2 |
| 20260506030115 | 57 | 5 | 4.0 | 9.0 | 0.00 | 0.00 | 0.05 | 86 | 1007.1 |
| 20260506025642 | 57 | 27 | 5.0 | 9.0 | 0.00 | 0.00 | 0.05 | 85 | 1007.2 |
| 20260506025136 | 57 | 321 | 5.0 | 8.0 | 0.00 | 0.00 | 0.05 | 85 | 1007.2 |
| 20260506024642 | 57 | 304 | 4.0 | 8.0 | 0.00 | 0.00 | 0.05 | 85 | 1007.0 |
| 20260506024116 | 57 | 360 | 5.0 | 6.0 | 0.00 | 0.00 | 0.05 | 86 | 1006.7 |
| 20260506023637 | 58 | 360 | 3.0 | 8.0 | 0.00 | 0.00 | 0.05 | 86 | 1006.3 |
| 20260506023143 | 58 | 25 | 4.0 | 8.0 | 0.00 | 0.00 | 0.05 | 86 | 1006.1 |
| 20260506022637 | 58 | 360 | 4.0 | 8.0 | 0.00 | 0.00 | 0.05 | 86 | 1006.2 |
| 20260506022143 | 58 | 20 | 3.0 | 8.0 | 0.00 | 0.00 | 0.05 | 86 | 1006.1 |
| 20260506021639 | 58 | 324 | 3.0 | 8.0 | 0.00 | 0.00 | 0.05 | 86 | 1005.8 |
| 20260506021139 | 58 | 360 | 6.0 | 6.0 | 0.00 | 0.00 | 0.05 | 87 | 1005.7 |
| 20260506020643 | 58 | 360 | 4.0 | 10.0 | 0.00 | 0.00 | 0.05 | 86 | 1005.7 |
| 20260506020137 | 58 | 360 | 3.0 | 10.0 | 0.00 | 0.00 | 0.05 | 86 | 1005.6 |
| 20260506015640 | 58 | 360 | 6.0 | 9.0 | 0.00 | 0.00 | 0.05 | 86 | 1005.4 |
| 20260506015137 | 58 | 360 | 4.0 | 6.0 | 0.00 | 0.00 | 0.05 | 87 | 1005.6 |
| 20260506014637 | 58 | 17 | 2.0 | 8.0 | 0.00 | 0.00 | 0.05 | 87 | 1005.3 |
| 20260506014236 | 58 | 360 | 4.0 | 10.0 | 0.00 | 0.00 | 0.05 | 87 | 1005.5 |
| 20260506013740 | 58 | 360 | 5.0 | 10.0 | 0.00 | 0.00 | 0.05 | 87 | 1005.1 |
| 20260506013240 | 59 | 360 | 6.0 | 10.0 | 0.00 | 0.00 | 0.05 | 87 | 1005.0 |
| 20260506012740 | 59 | 360 | 5.0 | 12.0 | 0.00 | 0.00 | 0.05 | 86 | 1004.9 |
| 20260506012240 | 59 | 360 | 6.0 | 12.0 | 0.00 | 0.00 | 0.05 | 86 | 1004.9 |
| 20260506011737 | 59 | 360 | 9.0 | 11.0 | 0.00 | 0.00 | 0.05 | 87 | 1004.9 |
| 20260506011239 | 59 | 360 | 4.0 | 14.0 | 0.00 | 0.00 | 0.05 | 87 | 1005.1 |
| 20260506010740 | 59 | 360 | 6.0 | 14.0 | 0.00 | 0.00 | 0.05 | 87 | 1004.6 |
| 20260506010243 | 59 | 360 | 8.0 | 13.0 | 0.00 | 0.00 | 0.05 | 86 | 1004.7 |
| 20260506005737 | 59 | 360 | 6.0 | 13.0 | 0.00 | 0.00 | 0.05 | 86 | 1004.6 |
| 20260506005239 | 60 | 18 | 9.0 | 14.0 | 0.00 | 0.00 | 0.05 | 86 | 1004.7 |
| 20260506004741 | 60 | 27 | 11.0 | 15.0 | 0.00 | 0.00 | 0.05 | 85 | 1004.7 |
| 20260506004241 | 61 | 20 | 14.0 | 15.0 | 0.00 | 0.00 | 0.05 | 85 | 1004.8 |
| 20260506003739 | 61 | 14 | 13.0 | 15.0 | 0.00 | 0.00 | 0.05 | 85 | 1004.9 |
| 20260506003239 | 62 | 10 | 3.0 | 16.0 | 0.00 | 0.00 | 0.05 | 84 | 1004.7 |
| 20260506002740 | 62 | 9 | 14.0 | 16.0 | 0.00 | 0.00 | 0.05 | 84 | 1004.6 |
| 20260506002239 | 63 | 360 | 8.0 | 13.0 | 0.00 | 0.00 | 0.05 | 84 | 1004.6 |
| 20260506001740 | 63 | 14 | 8.0 | 15.0 | 0.00 | 0.00 | 0.05 | 84 | 1004.5 |
| 20260506001241 | 64 | 344 | 6.0 | 15.0 | 0.00 | 0.00 | 0.05 | 84 | 1004.3 |
| 20260506000742 | 64 | 15 | 8.0 | 15.0 | 0.00 | 0.00 | 0.05 | 83 | 1004.2 |
| 20260506000242 | 65 | 345 | 9.0 | 14.0 | 0.00 | 0.00 | 0.05 | 83 | 1004.0 |
| 20260505235740 | 65 | 342 | 6.0 | 12.0 | 0.00 | 0.00 | 0.05 | 83 | 1004.0 |